RH
74 76 77 77 76 77 78 80 83 85 89 94 98 98 97 97 99 100 100 100 99 99 100 100 100 99 100 100 96 89 86 83 80 72 60 50 45 41 40 39 37 36 31 23 16 14 11 10 10 8 7 7 6 5 5 5 5 5 5 5 6 8 11
79 78 78 78 79 80 80 81 83 86 89 93 92 91 93 95 97 98 98 99 100 99 100 100 100 100 100 101 99 93 88 86 83 74 62 51 45 42 41 40 38 36 33 26 19 14 11 10 9 8 7 6 6 5 5 5 5 5 5 6 7 8 12
85 84 82 80 79 80 81 81 84 87 92 94 89 89 94 96 96 97 98 99 99 99 100 100 100 100 100 101 100 95 90 89 85 77 63 51 44 42 41 41 40 36 33 29 22 15 12 10 9 8 7 6 5 5 5 5 5 6 6 7 8 10 13
88 87 86 82 80 79 80 81 83 87 92 94 92 94 99 98 95 97 99 100 99 99 100 99 99 100 100 100 100 97 93 92 89 78 62 49 44 42 42 42 40 36 32 29 25 19 13 10 9 7 6 6 5 5 5 5 5 6 7 9 10 10 13
86 84 81 78 77 77 78 80 82 85 89 90 92 98 101 99 97 97 99 100 100 100 100 100 100 100 100 100 100 99 98 96 92 79 60 47 42 42 43 42 39 36 32 29 26 22 15 11 9 7 6 5 5 5 5 5 6 6 8 10 12 13 14
77 75 72 72 72 74 76 78 80 84 87 88 93 99 101 99 99 99 100 100 100 100 100 100 100 100 100 100 100 101 101 100 94 78 57 44 41 42 43 41 38 36 33 30 27 23 18 12 9 8 6 5 5 5 5 6 6 6 8 10 13 18 20
69 69 69 70 71 72 75 78 80 84 88 90 96 100 100 100 101 100 100 100 100 100 100 100 100 100 100 100 100 100 101 102 95 76 53 42 42 43 42 41 38 35 33 30 27 24 19 13 10 8 6 5 5 5 5 6 6 6 8 11 13 18 25
64 66 67 69 70 71 73 76 80 85 89 93 97 100 100 100 101 100 100 100 100 100 100 100 100 100 100 100 100 100 101 102 95 73 51 43 43 43 42 40 38 35 33 29 26 22 18 14 12 8 7 6 5 5 6 6 6 6 8 11 14 18 25
64 65 67 67 69 70 71 75 79 85 89 93 97 99 100 100 100 100 100 100 100 100 100 100 100 100 100 100 100 100 101 102 93 69 50 45 44 43 42 40 37 35 32 27 24 21 16 14 13 9 7 5 5 5 6 6 7 7 8 10 12 17 26
66 67 68 68 69 70 72 75 80 85 90 93 96 99 100 100 100 100 100 100 100 100 100 101 100 100 100 100 100 100 101 101 89 66 51 46 44 42 41 40 38 35 30 26 22 19 16 15 13 9 6 5 5 6 6 7 8 7 9 11 11 16 26
67 68 69 70 70 71 73 77 81 87 90 93 96 97 99 100 100 100 100 100 100 100 100 101 100 100 100 100 100 100 101 100 87 65 51 47 45 43 41 41 39 34 29 24 21 18 17 15 12 8 6 5 5 6 7 8 8 9 11 13 13 17 25
67 68 69 70 71 72 74 77 83 88 91 92 95 96 98 100 100 101 100 100 100 101 100 100 100 100 100 100 100 100 101 99 84 62 51 47 45 43 43 42 39 34 28 23 20 19 17 13 10 7 6 6 5 6 8 8 10 11 12 14 16 21 27
67 68 69 70 71 72 73 77 83 89 91 93 95 96 98 100 100 100 100 100 101 101 100 100 100 100 100 100 100 100 101 98 80 60 51 49 46 46 46 44 39 33 28 24 22 20 16 11 9 7 6 6 6 7 9 10 11 13 14 16 20 25 29
69 70 71 70 70 71 72 76 84 91 93 94 96 97 96 98 100 100 99 100 101 100 100 100 100 100 100 100 100 100 101 95 75 57 51 49 47 48 47 45 40 33 28 26 23 19 15 10 8 8 7 6 6 8 10 12 13 15 18 21 24 27 28
73 74 75 74 72 71 71 76 85 92 92 92 95 97 95 94 99 101 100 100 100 100 100 100 100 100 100 100 100 100 101 91 69 55 52 50 49 50 49 45 39 32 27 25 20 15 13 10 8 7 6 6 8 9 12 14 14 16 21 24 26 27 25
77 78 79 79 78 76 75 79 87 91 92 93 96 99 96 93 95 100 101 100 100 101 101 100 100 100 100 100 100 101 100 86 66 57 55 53 52 53 51 46 38 30 25 21 16 13 12 10 8 6 6 7 9 11 14 15 16 21 27 28 27 25 23
84 84 84 83 83 82 80 83 90 94 96 96 97 99 98 94 94 98 101 100 100 101 101 100 100 100 100 100 100 101 98 83 68 62 60 57 57 55 52 46 36 27 22 17 13 12 11 9 7 6 6 8 11 13 16 16 17 22 28 28 26 23 22
91 89 88 87 87 86 85 87 92 96 97 97 98 99 98 96 96 98 100 100 101 100 100 100 100 100 101 100 100 101 97 83 71 66 63 60 59 56 52 45 33 25 20 15 13 13 11 9 7 6 7 9 13 17 21 22 22 26 27 25 23 21 22
96 94 93 92 91 91 90 90 93 95 96 97 99 99 97 96 97 99 100 101 100 100 100 100 100 100 101 100 100 101 95 81 71 67 63 61 59 56 52 43 31 25 21 15 13 12 9 8 7 6 8 12 16 24 32 35 34 32 28 24 22 22 24
99 98 97 96 95 94 92 92 94 97 98 99 99 99 99 97 98 100 100 100 100 100 100 100 100 100 100 100 100 100 93 78 69 66 64 61 59 57 52 42 32 27 22 17 14 12 8 7 6 7 10 14 21 32 43 45 39 31 26 22 21 22 24
100 101 100 99 98 96 95 95 97 98 100 101 100 100 100 97 97 100 100 100 100 100 100 100 100 100 100 100 100 98 88 74 67 65 63 61 60 57 51 42 35 30 24 19 16 12 9 7 6 8 12 17 26 39 49 45 32 23 21 21 21 23 24
100 101 100 100 99 99 98 99 100 100 101 101 100 100 100 98 98 100 101 100 100 100 100 100 100 100 100 100 100 97 85 72 66 64 62 61 60 56 50 44 39 33 27 23 19 14 11 8 7 10 15 21 31 43 47 36 22 17 20 24 26 27 27
99 100 100 100 100 100 100 101 101 101 100 100 100 100 100 99 99 100 101 100 100 100 101 100 100 100 100 100 101 94 80 71 68 65 63 62 59 55 51 46 41 36 30 25 20 16 11 8 8 11 16 24 34 43 42 28 17 19 27 33 35 35 32
99 100 100 100 100 101 101 101 101 100 100 100 100 100 100 100 99 100 101 101 100 100 101 100 100 100 100 101 100 89 76 71 70 67 65 62 58 54 50 45 40 35 30 25 20 16 11 8 9 13 18 28 38 43 35 21 16 25 36 40 39 38 35
100 100 99 99 100 100 100 101 101 100 100 100 100 100 100 100 99 100 101 101 101 100 100 100 101 100 100 102 98 86 76 74 72 69 66 63 59 54 50 45 40 35 30 25 20 15 11 9 10 14 21 32 42 40 27 16 19 32 40 40 37 34 32
100 100 99 100 100 99 100 101 100 100 100 100 100 100 100 100 100 100 100 100 100 100 100 101 100 99 101 101 95 84 79 78 75 71 68 65 60 55 49 44 39 34 29 24 19 14 10 9 11 15 23 35 43 36 20 15 26 37 38 35 32 29 26
100 100 100 100 100 100 100 100 100 100 100 100 100 100 100 100 100 100 100 100 100 100 101 100 100 100 102 99 91 85 83 81 77 74 71 67 61 55 49 43 38 33 28 23 17 13 10 9 12 16 24 36 42 32 17 17 31 39 35 29 26 23 20
100 100 100 99 100 100 100 100 100 100 100 100 100 100 100 100 100 100 100 100 100 101 101 100 100 102 101 96 91 88 87 83 79 77 73 68 61 55 49 43 38 33 28 21 15 12 10 11 13 17 26 37 39 27 15 20 33 36 29 23 20 18 17
100 99 99 100 100 100 100 100 100 100 100 100 99 100 100 100 100 100 100 100 100 101 100 99 100 101 99 95 93 92 89 85 82 79 74 69 62 54 48 43 37 32 26 19 14 11 10 12 15 22 31 39 35 22 14 22 33 32 23 18 16 17 20
100 100 99 100 100 100 100 100 100 100 100 99 100 100 100 100 100 100 100 100 101 100 98 98 100 100 98 97 96 93 90 87 83 79 74 68 60 53 47 42 36 29 23 17 13 11 11 14 21 30 37 39 31 18 14 24 32 27 19 16 17 21 26
100 100 100 100 100 100 100 100 100 100 100 100 100 100 100 100 100 100 100 100 100 99 97 99 100 100 100 100 98 94 90 88 84 78 72 65 58 51 45 39 33 26 20 16 13 12 14 21 30 37 39 35 25 15 16 25 29 22 16 17 21 26 28
100 100 100 100 100 100 100 100 100 100 100 100 100 100 100 100 100 100 100 100 100 98 98 99 101 100 101 100 97 93 90 87 82 76 69 61 55 48 41 34 28 21 17 14 13 15 21 31 39 41 37 29 19 14 18 25 24 18 15 19 25 27 25
100 100 100 100 100 100 100 100 100 100 100 100 100 100 100 100 100 100 100 100 100 100 100 101 102 101 101 100 96 92 90 86 80 73 65 58 51 44 37 30 23 18 16 14 15 20 29 40 43 38 30 22 16 15 20 24 21 16 17 22 26 25 22
100 100 100 100 100 100 100 100 100 100 100 100 100 100 100 100 100 100 100 101 102 102 101 101 101 100 100 98 95 91 88 83 76 69 61 54 47 41 34 27 21 17 15 15 19 28 39 44 40 31 23 18 16 17 21 22 17 15 19 25 26 24 24
100 100 100 100 100 100 100 100 100 100 100 100 100 100 100 100 100 101 102 103 102 102 101 101 100 99 97 95 92 88 83 77 70 63 56 49 42 36 29 23 18 15 15 20 29 39 44 40 31 23 19 17 17 19 20 19 16 17 22 25 25 25 27
100 100 100 100 100 100 100 100 100 100 100 100 100 100 100 100 100 101 103 103 102 102 101 100 99 97 95 92 88 83 77 70 63 56 48 42 35 29 24 19 17 16 20 30 41 46 42 32 24 20 19 19 19 19 19 17 16 19 23 26 26 27 29
Wind_Speed
47 47 47 47 46 46 45 45 44 44 44 43 43 43 43 43 44 45 46 47 46 45 45 44 44 44 44 43 42 41 41 41 41 41 40 40 40 39 39 40 41 41 38 33 32 33 32 33 35 35 35 35 35 36 37 37 38 38 39 40 41 40 38
46 48 49 50 49 48 47 47 46 46 46 45 44 45 45 45 45 46 47 48 47 46 46 45 45 44 44 44 43 42 42 42 42 41 41 41 40 40 40 40 41 42 41 37 33 33 32 33 35 35 34 35 36 35 36 37 38 38 39 40 41 40 39
47 48 50 51 51 50 49 49 48 47 46 46 47 49 48 46 47 48 49 49 48 48 47 47 45 44 44 44 43 42 42 42 42 42 42 41 40 41 41 41 42 42 42 40 36 33 33 33 35 35 34 35 36 35 36 37 37 38 39 40 41 41 39
49 49 50 50 51 51 51 50 49 48 47 47 50 52 50 48 48 50 50 50 50 49 49 48 47 45 44 44 43 42 42 42 42 42 42 41 41 41 42 42 42 42 42 42 39 35 34 34 35 35 35 35 36 35 35 36 37 38 39 40 40 41 40
49 50 50 50 51 51 51 51 50 50 50 50 52 54 53 50 50 51 51 51 51 51 51 49 47 45 45 44 43 42 42 42 43 43 42 41 41 42 42 42 43 43 43 43 42 39 36 35 36 36 35 35 36 35 35 36 38 38 38 39 39 39 40
50 50 51 51 51 52 51 51 51 51 52 53 54 55 53 51 52 53 54 54 54 53 51 49 47 46 45 44 43 42 42 43 43 43 42 41 42 42 43 43 43 43 43 43 43 41 39 37 37 37 36 36 36 36 35 36 38 38 38 38 38 37 38
50 50 50 50 50 51 51 51 51 52 53 54 55 54 53 52 53 55 55 56 55 54 51 49 48 47 45 44 43 42 42 43 43 43 42 42 42 43 44 44 43 44 43 43 43 43 41 40 39 38 37 36 37 37 37 38 39 39 38 38 38 36 36
49 50 49 50 50 50 51 51 51 51 52 53 53 53 53 53 54 55 56 57 56 54 52 50 48 47 45 44 44 43 43 43 43 43 42 42 43 44 45 44 44 44 44 44 44 43 43 42 41 39 38 38 38 37 38 39 40 41 40 39 38 36 35
50 50 50 50 50 50 51 51 50 50 51 51 52 53 54 54 55 56 56 57 56 54 52 50 48 47 45 45 44 44 43 43 43 43 43 43 44 45 45 45 45 45 44 44 45 44 44 44 42 40 39 39 38 38 39 39 40 42 41 40 39 37 35
51 51 50 50 50 50 50 50 49 49 49 51 52 53 54 55 55 56 57 57 55 54 52 50 48 47 46 45 45 44 43 43 43 43 43 44 44 45 45 45 45 45 45 45 45 45 45 45 43 41 40 40 39 39 40 40 41 42 41 41 42 40 36
51 51 50 50 50 50 50 49 48 48 49 51 52 53 54 55 56 57 57 57 56 54 52 50 49 47 46 45 44 44 43 43 43 43 43 44 45 45 46 46 46 45 45 45 46 46 46 45 44 42 41 41 41 40 41 41 42 42 42 42 43 42 39
50 50 50 50 50 49 49 48 48 48 49 51 52 53 54 55 56 58 58 58 57 55 52 51 49 48 46 45 44 44 44 43 43 43 44 45 46 46 46 46 46 46 45 45 46 47 47 45 44 43 42 42 41 42 42 41 42 43 43 44 44 43 42
49 50 50 49 49 49 48 48 47 48 49 51 52 53 54 55 57 58 59 59 57 54 52 51 49 48 46 44 44 44 44 43 42 43 45 46 46 46 46 46 46 46 45 46 47 48 47 45 44 44 43 42 42 42 42 42 43 44 45 46 45 45 44
50 50 49 48 48 48 48 47 47 48 49 51 52 53 54 55 57 58 59 58 56 53 52 50 49 47 46 44 43 43 43 42 42 44 45 46 46 46 46 47 46 45 45 47 49 49 47 45 44 45 44 43 42 42 42 43 44 45 46 47 46 46 45
50 50 50 49 48 48 49 48 48 48 49 51 51 53 53 54 56 58 58 56 54 53 51 49 48 47 46 45 43 42 42 42 43 44 46 46 46 46 46 47 45 44 45 48 49 49 48 46 45 45 43 42 43 43 43 43 45 46 47 47 47 47 46
51 51 50 50 49 50 50 49 48 49 50 51 51 53 53 54 55 57 57 55 53 52 51 49 47 46 46 45 43 42 41 42 43 45 46 46 46 46 47 47 44 43 46 48 49 49 48 46 45 44 42 42 43 43 43 44 46 46 46 47 48 48 46
51 51 51 51 51 51 50 49 48 49 50 51 51 52 53 54 55 55 55 54 52 51 50 49 47 46 45 44 42 41 41 42 44 45 45 46 46 47 48 46 43 44 47 48 49 49 48 46 45 43 42 42 42 42 43 45 46 46 46 48 49 48 47
52 52 53 53 52 52 52 50 49 49 50 51 51 52 53 54 55 55 54 53 51 51 50 49 47 46 45 43 41 40 41 43 44 45 46 46 47 48 47 44 43 45 47 48 48 49 47 46 45 43 42 42 41 42 44 46 47 47 48 49 49 49 47
53 54 54 53 53 53 53 52 51 51 51 51 52 52 53 54 56 55 54 52 51 50 49 48 46 45 43 43 42 41 42 43 45 46 46 47 47 47 45 43 45 48 48 48 47 47 46 45 44 42 42 41 40 41 44 46 48 49 50 51 51 50 49
53 54 54 54 54 54 53 53 52 51 51 51 52 52 53 55 56 55 53 52 51 51 50 48 45 43 41 42 43 42 42 43 45 46 46 47 47 46 45 45 47 49 48 48 47 46 45 44 42 41 40 40 40 41 43 46 49 50 51 52 52 51 50
54 55 55 55 55 54 54 53 53 52 51 51 52 52 53 55 55 53 52 52 52 52 50 47 44 42 41 42 43 43 42 43 44 45 46 46 46 45 45 47 48 49 48 48 47 45 45 44 42 40 39 39 40 42 43 45 47 49 50 51 51 51 50
55 56 56 56 55 55 54 53 52 52 51 51 51 52 53 54 54 52 52 53 53 52 49 46 43 42 42 43 43 43 43 43 43 44 45 45 45 45 46 47 48 49 48 48 47 46 45 43 41 39 38 39 40 42 43 44 45 46 48 48 49 49 48
56 57 57 56 56 55 54 53 52 51 50 50 50 51 52 53 53 53 53 53 53 51 48 45 44 43 43 43 43 43 43 43 43 44 44 44 45 46 46 47 48 48 48 47 47 47 45 43 41 40 39 40 41 42 42 42 42 43 45 45 45 46 45
57 57 57 56 55 54 53 52 50 49 49 50 50 51 52 52 52 52 53 53 53 50 47 45 44 44 44 44 43 42 42 43 43 43 43 44 45 45 46 47 47 47 47 47 47 46 45 44 42 41 40 40 42 42 42 41 41 41 42 42 42 42 42
56 56 56 55 54 53 51 50 49 48 49 49 50 51 51 51 51 52 53 53 52 49 47 45 44 44 44 44 43 42 43 43 42 42 43 44 44 45 45 46 46 47 47 47 47 46 45 44 43 42 41 41 42 42 42 41 40 39 39 39 39 39 40
55 55 55 54 53 51 49 48 47 47 47 48 49 49 49 50 51 51 52 51 50 48 46 45 45 45 45 44 43 43 43 42 42 43 43 43 43 44 45 45 46 46 47 47 46 46 45 45 44 43 42 42 42 42 42 40 39 38 38 37 38 38 38
53 53 53 52 51 49 47 47 46 46 46 47 48 48 48 49 50 51 50 49 48 47 46 46 46 46 45 44 44 43 43 43 43 43 42 42 42 43 44 45 45 46 46 46 46 46 46 45 44 43 43 42 42 42 41 39 38 38 37 37 37 37 37
50 51 50 49 47 46 46 45 45 45 44 45 46 46 48 49 49 49 48 47 46 46 46 46 46 46 45 45 44 43 43 43 43 42 42 42 42 43 43 44 45 45 45 45 45 46 46 46 45 44 42 42 42 41 40 39 38 36 36 36 37 36 35
50 50 49 48 46 45 45 45 44 43 43 44 45 46 47 47 47 46 46 45 45 46 46 46 46 46 46 45 44 43 43 43 42 42 42 42 42 42 43 44 44 44 44 45 46 46 46 45 44 43 42 42 42 42 41 39 37 36 35 35 35 35 34
48 48 48 47 46 46 45 45 44 43 43 44 44 44 44 44 44 44 44 44 45 46 46 47 47 47 46 44 44 43 42 42 42 42 42 41 41 42 43 43 43 43 44 45 46 46 45 45 44 43 42 42 42 42 41 39 37 35 34 34 34 35 34
46 46 46 45 44 44 43 42 41 41 41 42 42 42 42 42 42 43 43 44 45 46 47 47 47 46 45 44 43 42 42 41 42 42 41 41 41 42 42 42 42 43 44 45 45 45 44 44 44 43 43 43 43 42 41 39 37 35 34 34 34 35 35
43 42 42 41 41 40 40 39 39 39 39 40 40 39 40 40 41 42 43 44 45 46 46 47 46 45 44 43 42 42 41 41 41 41 41 41 41 41 42 42 42 43 43 45 45 44 44 44 44 44 44 43 43 42 40 39 37 35 34 34 34 35 35
40 38 38 38 38 38 37 37 37 37 37 37 37 38 39 40 41 42 42 43 44 45 45 45 44 44 43 42 41 41 41 41 41 41 41 41 41 42 42 42 42 42 43 44 44 44 44 44 44 44 44 44 44 42 40 39 37 35 34 34 34 35 36
36 36 36 36 36 36 36 35 35 35 35 36 37 38 39 39 40 41 42 42 43 43 43 43 43 42 42 41 40 40 41 41 40 41 41 41 41 42 42 42 42 42 42 42 43 43 43 43 43 44 44 44 43 42 41 39 37 35 34 34 35 36 38
33 33 34 34 34 34 33 33 33 34 34 35 36 37 38 39 40 40 40 41 41 41 41 41 41 41 40 40 40 40 40 40 40 40 40 40 41 41 41 41 41 41 41 41 42 42 42 42 43 43 43 43 43 42 41 39 38 36 35 36 37 38 40
30 30 31 31 31 31 31 32 32 33 33 34 35 37 38 39 39 39 39 39 39 39 39 39 39 39 39 39 39 39 39 39 39 39 39 39 40 40 41 40 40 40 40 40 40 41 41 41 42 42 42 42 41 41 40 39 38 37 37 37 38 40 41
Wind_Direction
266 266 266 267 268 269 269 270 270 270 270 271 273 275 273 271 269 268 268 268 270 271 273 274 274 275 276 276 274 271 269 268 268 269 269 271 273 275 277 279 280 281 282 280 280 280 281 281 281 281 280 280 279 278 279 279 279 278 277 277 277 277 276
268 267 267 267 268 269 269 269 268 268 268 270 273 274 272 270 269 268 267 268 269 271 272 273 273 274 274 274 272 270 269 268 268 268 269 271 273 275 278 279 281 282 282 282 281 282 283 283 282 282 281 281 280 279 279 279 278 278 277 277 277 277 276
269 269 268 268 268 269 269 269 267 266 265 268 272 272 268 268 268 267 267 268 269 270 271 271 272 272 272 272 270 269 268 268 268 268 270 271 274 276 278 280 281 282 283 283 283 283 284 283 283 283 281 280 280 279 278 278 277 276 276 275 276 276 276
270 270 270 270 270 269 270 270 267 265 265 267 270 269 266 266 267 267 267 267 268 269 269 269 270 271 272 271 269 268 268 268 268 269 270 272 275 277 278 280 281 282 283 284 284 284 284 284 283 282 281 280 280 279 278 277 275 274 274 274 274 275 275
270 271 272 272 271 270 270 270 267 264 264 266 268 267 266 266 266 266 265 265 265 266 267 269 271 271 271 270 269 268 268 268 268 269 270 273 275 277 278 280 281 282 283 284 285 286 285 284 284 282 281 281 280 279 277 276 275 274 273 273 274 275 276
272 272 273 273 272 271 270 270 268 265 264 265 266 265 265 267 267 266 264 264 264 265 267 269 270 270 270 269 268 267 267 267 268 269 270 273 275 277 278 280 281 282 283 284 285 286 286 286 285 284 283 283 282 281 279 277 276 275 274 274 273 274 276
274 274 274 273 272 271 271 270 269 266 265 265 265 266 266 267 267 266 265 264 264 265 267 268 269 269 269 268 266 266 266 266 267 268 270 273 275 277 278 280 281 282 283 284 285 286 287 286 286 286 286 285 284 284 282 280 279 278 277 275 274 273 275
275 274 273 272 272 271 271 270 269 268 266 266 266 266 267 267 267 266 266 265 264 265 266 267 267 268 268 266 265 265 265 266 266 268 270 272 275 276 278 280 281 282 283 284 284 286 287 286 286 287 287 286 285 285 284 283 282 281 279 277 275 274 274
274 274 273 273 272 272 271 271 270 269 268 267 266 265 265 265 265 266 266 265 265 265 265 265 266 266 266 265 264 264 265 265 266 267 269 272 274 276 278 279 280 281 282 283 284 285 286 286 287 288 288 286 286 285 285 283 282 282 281 280 278 277 277
274 274 274 274 273 273 272 272 271 269 267 266 265 264 263 264 264 265 265 265 265 265 264 264 264 265 264 263 262 263 264 264 265 267 269 272 273 275 277 279 280 281 282 282 283 284 285 286 287 288 287 286 286 286 285 284 283 282 283 282 281 280 280
274 274 273 273 273 272 272 271 270 268 266 264 263 262 262 263 263 264 263 263 263 262 262 262 263 264 263 261 262 263 263 263 264 267 269 271 273 274 276 278 279 280 280 281 283 283 284 285 287 287 286 286 286 286 285 285 284 284 284 283 282 282 283
274 273 272 272 271 271 271 270 269 267 264 263 262 261 261 261 262 262 262 262 261 262 262 262 263 263 262 261 262 262 262 263 264 267 269 271 272 273 275 277 278 279 280 281 281 282 283 284 285 285 285 285 286 286 286 286 286 286 285 284 284 284 284
274 273 272 272 271 270 270 269 267 265 263 262 261 261 261 261 261 262 261 261 261 262 262 262 262 262 261 260 261 262 262 263 264 267 269 270 272 273 275 277 277 278 279 280 280 281 282 284 284 285 285 285 286 286 287 287 286 286 285 284 284 284 283
274 273 272 272 270 269 269 267 265 263 262 262 261 261 261 261 261 261 262 261 261 261 261 262 262 262 261 260 260 262 263 263 265 267 268 270 272 274 275 276 276 278 279 280 280 281 282 283 284 284 285 285 286 286 285 285 285 284 283 283 283 282 281
273 273 272 271 270 269 267 266 264 262 261 261 260 260 260 260 260 260 261 262 261 260 260 261 261 261 261 260 260 261 261 263 265 267 268 270 272 274 275 275 276 278 279 279 279 281 282 283 283 283 284 285 285 284 284 284 283 282 282 283 282 281 282
274 274 272 271 270 268 267 265 264 262 261 261 260 259 260 260 260 259 260 260 260 260 260 260 260 260 260 260 260 260 260 262 264 266 268 271 272 273 274 275 276 278 277 277 278 279 281 282 282 282 283 283 282 282 282 282 281 281 282 282 282 283 284
275 273 272 270 269 267 266 265 263 262 261 260 259 258 259 260 260 259 258 258 258 258 259 259 260 260 260 260 261 262 262 262 264 266 268 269 270 271 272 274 276 275 275 275 276 278 279 280 281 281 281 281 282 282 282 280 280 281 281 281 281 283 284
274 272 271 270 269 268 266 264 262 260 259 258 258 257 258 259 259 260 259 257 256 256 257 258 258 258 259 261 262 262 262 264 266 267 268 268 269 270 272 274 274 272 272 273 275 277 278 280 280 281 281 281 282 283 283 283 282 283 283 283 284 285 285
276 274 272 271 269 268 266 264 262 260 259 258 257 256 257 257 258 258 258 258 257 257 257 257 256 257 259 261 261 261 262 264 265 267 268 269 270 271 272 273 272 270 271 272 273 276 277 279 279 280 281 281 282 283 285 285 285 285 286 286 287 287 287
277 276 274 271 269 267 266 264 262 261 259 258 257 256 256 256 257 257 257 257 257 257 257 257 257 258 260 261 261 261 262 264 265 267 268 269 270 272 273 272 270 270 271 272 274 275 276 277 277 277 278 279 281 282 284 285 286 286 286 287 287 287 287
277 276 274 272 269 267 265 264 262 261 259 258 257 256 255 256 256 256 256 257 257 258 258 258 259 259 260 261 262 263 264 265 266 267 268 269 271 272 271 270 270 271 272 273 274 275 275 275 275 276 276 276 277 279 281 282 283 284 285 286 287 287 286
277 275 274 273 270 268 265 263 262 261 259 258 256 255 254 255 255 255 255 256 257 258 259 259 259 260 261 262 263 265 266 267 267 268 269 270 271 270 270 270 270 271 272 274 275 275 275 276 276 276 276 275 275 276 277 279 280 281 282 283 283 284 284
276 275 274 273 271 269 266 264 262 261 259 257 255 253 252 253 254 254 255 256 257 258 259 260 260 261 262 263 264 266 268 268 269 270 270 270 270 270 270 270 270 272 273 275 275 276 277 278 277 277 276 275 275 276 277 278 280 279 279 279 279 280 281
274 273 272 272 271 269 266 264 262 261 258 256 253 252 251 252 253 255 255 256 257 258 259 260 261 262 263 265 266 268 269 270 270 270 270 270 269 269 270 271 272 273 274 275 276 277 278 279 279 279 278 277 277 278 279 280 279 277 276 276 276 277 277
273 272 270 269 268 267 265 263 261 260 258 255 253 251 251 252 253 254 256 257 258 259 260 261 262 263 265 266 268 269 269 270 270 270 269 269 269 269 270 271 272 274 274 276 277 278 279 279 279 279 279 278 280 281 282 282 280 276 274 274 274 274 275
272 270 268 267 266 265 263 262 260 259 256 254 253 252 252 252 252 253 255 257 258 260 261 262 264 265 266 268 270 270 270 270 270 269 268 268 268 269 270 271 272 274 275 276 278 278 279 278 278 279 278 279 280 281 282 281 279 276 274 273 273 274 275
269 268 267 266 265 264 263 261 259 257 255 253 253 252 251 251 251 252 254 256 258 260 262 263 265 266 269 271 271 271 271 270 269 269 268 268 268 268 269 270 272 273 274 276 277 277 277 277 278 278 278 278 279 281 281 280 277 274 273 273 273 274 275
265 263 263 263 262 261 260 259 257 255 254 253 252 251 250 249 250 251 253 256 258 260 262 264 266 268 271 272 272 272 272 271 270 269 269 268 268 269 269 270 272 273 275 276 277 276 276 277 277 277 278 278 280 281 280 277 275 273 272 272 272 273 274
261 260 258 257 256 256 255 255 254 252 251 250 249 248 248 248 249 251 254 256 259 261 263 265 268 270 272 272 272 272 271 270 270 269 269 268 269 269 270 271 272 274 275 275 275 275 275 276 277 278 279 279 280 280 278 276 274 272 271 270 270 271 272
260 258 256 255 254 254 254 254 253 252 250 249 247 246 246 247 249 252 255 258 260 263 265 267 269 271 272 272 272 272 271 270 269 269 268 268 269 269 270 271 272 273 274 274 274 274 276 277 278 279 279 279 279 278 276 274 273 272 269 268 267 268 269
258 257 256 256 255 255 255 255 254 252 250 247 245 245 246 247 250 253 256 259 262 264 266 269 271 272 272 272 272 271 270 269 269 269 269 269 270 270 271 272 273 274 273 274 274 276 277 278 279 279 279 279 278 277 274 273 271 270 267 265 265 267 268
258 257 257 257 257 257 256 255 253 250 247 245 244 245 247 249 252 255 258 261 263 266 269 271 272 272 273 273 272 271 271 270 270 270 271 271 271 272 272 273 273 273 274 275 276 277 277 278 279 279 279 278 277 275 273 271 270 268 265 263 264 266 267
258 257 256 256 256 256 255 253 250 247 244 244 245 247 249 252 255 257 260 263 266 268 270 271 271 272 272 272 271 270 270 270 270 270 270 271 271 271 272 272 271 271 272 273 275 276 276 277 278 279 278 278 277 274 272 270 268 266 263 262 263 265 267
259 257 257 257 256 256 254 251 247 245 245 246 249 251 254 256 258 261 264 266 268 269 269 270 270 271 270 270 269 268 268 268 269 269 269 269 270 270 271 271 271 271 271 272 273 275 276 277 278 278 277 276 275 272 270 269 267 265 263 263 264 266 268
260 258 258 257 256 254 252 249 247 246 248 251 253 256 259 261 263 265 267 268 269 269 270 270 270 270 269 268 268 268 268 268 268 268 269 269 270 270 270 270 271 271 272 273 273 275 276 276 277 277 276 274 272 270 269 267 266 264 264 264 266 268 270
260 259 258 256 255 253 252 251 250 251 253 256 258 261 263 265 267 268 269 269 269 270 270 269 269 268 267 267 267 267 268 268 268 268 269 269 269 270 270 270 270 271 272 273 274 275 276 276 276 276 275 273 270 268 267 266 265 264 264 266 268 270 272